Location: Wolf Lake
(46.8518°N, 80.6381°W)
Time: 18:32:13
(UTC-04:00)

ISS - Visible Passes

Search period start: 22 July 2019 00:00
Search period end: 01 August 2019 00:00
Orbit: 409 x 418 km, 51.6° (Epoch: 22 July)

Date Brightness Start Highest point End Pass type
(mag) Time Alt. Az. Time Alt. Az. Time Alt. Az.
22 Jul -2.1 00:01:40 10° WNW 00:04:45 34° N 00:07:44 11° ENE visible
22 Jul -2.4 01:38:28 10° WNW 01:40:32 34° NW 01:40:32 34° NW visible
22 Jul -2.1 23:12:13 10° WNW 23:15:19 34° N 23:18:26 10° ENE visible
23 Jul -2.9 00:49:11 10° WNW 00:52:24 49° NNE 00:52:24 49° NNE visible
23 Jul -2.2 22:22:44 10° W 22:25:54 37° N 22:29:03 10° ENE visible
23 Jul -2.5 23:59:52 10° WNW 00:03:03 40° NNE 00:04:24 26° ENE visible
24 Jul -1.2 01:36:34 10° WNW 01:37:12 15° WNW 01:37:12 15° WNW visible
24 Jul -2.3 23:10:30 10° WNW 23:13:37 35° N 23:16:28 12° ENE visible
25 Jul -2.4 00:47:14 10° WNW 00:49:17 34° WNW 00:49:17 34° WNW visible
25 Jul -2.2 22:21:03 10° WNW 22:24:10 34° N 22:27:15 10° ENE visible
25 Jul -3.4 23:57:55 10° WNW 00:01:13 61° NNE 00:01:25 59° NE visible
26 Jul -2.2 21:31:34 10° WNW 21:34:42 35° N 21:37:48 10° ENE visible
26 Jul -2.9 23:08:34 10° WNW 23:11:50 46° NNE 23:13:35 23° E visible
27 Jul -1.5 00:45:19 10° WNW 00:46:23 18° W 00:46:23 18° W visible
27 Jul -2.5 22:19:12 10° WNW 22:22:23 39° N 22:25:32 10° E visible
27 Jul -3.2 23:55:54 10° WNW 23:58:35 52° W 23:58:35 52° W visible
28 Jul -3.8 23:06:32 10° WNW 23:09:53 78° NNE 23:10:48 45° ESE visible
29 Jul -3.3 22:17:10 10° WNW 22:20:29 56° NNE 22:23:03 15° E visible
29 Jul -2.0 23:54:02 10° WNW 23:55:52 24° WSW 23:55:52 24° WSW visible
30 Jul -2.8 21:27:47 10° WNW 21:31:01 44° NNE 21:34:14 10° E visible
30 Jul -3.5 23:04:30 10° WNW 23:07:46 51° SSW 23:08:08 48° S visible
31 Jul -3.8 22:15:04 10° WNW 22:18:25 80° SSW 22:20:26 22° ESE visible
31 Jul -1.1 23:52:46 10° W 23:53:15 12° WSW 23:53:15 12° WSW visible
